#timestamp,LO_Frequency,Hit,StdDev 
1545105615.8,286046999.5,N
1545105635.6,286046997.2,N
1545105655.5,286046998.8,N
1545105675.3,286046999.3,N
1545105695.1,286046998.8,N
1545105715.9,286047002.4,N
1545105735.7,286047001.1,N
1545105755.5,286046998.7,N
1545105775.4,286047001.1,N
1545105795.2,286046998.3,N
1545105815.1,286047000.1,N
1545105816.0,286047000.1,N
1545105835.8,286047000.6,N
1545105855.6,286046997.4,N
1545105875.5,286046997.3,N
1545105895.3,286046999.6,N
1545105915.1,286046997.2,N
1545105935.9,286046997.4,N
1545105955.7,286046997.4,N
1545105975.6,286046996.6,N
1545105995.4,286046997.5,N
1545106015.2,286046997.6,N
1545106035.1,286046995.5,Y
1545106036.0,286046995.5,P
1545106055.8,286046995.7,N
1545106075.7,286046995.0,P
1545106095.5,286046995.9,N
1545106115.3,286046995.1,Y
1545106135.2,286047000.8,P
1545106155.0,286046998.1,N
1545106155.9,286046998.1,N
1545106175.8,286047000.8,N
1545106195.6,286047002.6,N
1545106215.4,286047002.0,N
1545106235.3,286046999.7,N
1545106255.1,286046999.7,N
1545106275.8,286047002.4,N
1545106295.7,286047002.5,N
1545106315.5,286047002.6,N
1545106335.4,286047000.7,N
1545106355.2,286046998.3,N
1545106375.0,286046998.7,N
1545106375.9,286046998.7,N
1545106395.8,286046998.7,N
1545106415.6,286047000.1,N
1545106435.4,286047000.9,N
1545106455.3,286046998.9,N
1545106475.1,286046998.9,N
1545106495.9,286046999.2,N
1545106515.7,286046999.0,N
1545106535.5,286047001.1,N
1545106555.4,286047001.2,N
1545106575.2,286046998.6,N
1545106595.0,286047000.4,N
1545106595.9,286047000.4,N
1545106615.8,286047002.5,N
1545106635.6,286047002.2,N
1545106655.5,286047004.3,N
1545106675.3,286047003.7,N
1545106695.1,286047002.3,N
1545106715.9,286047000.4,N
1545106735.7,286047002.5,N
1545106755.6,286047000.3,N
1545106775.4,286046999.9,N
1545106795.2,286047002.7,N
1545106815.1,286046999.7,N
1545106816.0,286046999.7,N
1545106835.8,286047002.4,N
1545106855.6,286047003.0,N
1545106875.5,286047005.2,Y
1545106895.3,286047002.0,P
1545106915.2,286047002.0,N
1545106935.9,286047001.7,N
1545106955.7,286047000.1,N
1545106975.6,286046999.7,N
1545106995.4,286047002.3,N
1545107015.2,286047000.8,N
1545107035.1,286046999.9,N
1545107036.0,286046999.9,N
1545107055.8,286047002.7,N
1545107075.7,286046999.8,N
1545107095.5,286047000.4,N
1545107115.3,286047002.6,N
1545107135.2,286047001.5,N
1545107155.0,286047002.1,N
1545107155.9,286047002.1,N
1545107175.8,286047000.2,N
1545107195.6,286046999.7,N
1545107215.4,286047002.2,N
1545107265.3,286047003.8,E
1545107275.2,286047005.6,N
1545107295.1,286047003.6,P
1545107296.0,286047003.6,P
1545107315.8,286047001.0,N
1545107335.6,286046999.4,N
1545107355.5,286046999.5,N
1545107375.3,286046997.6,N
1545107395.2,286046997.6,N
1545107415.9,286046999.5,N
1545107435.7,286046997.0,N
1545107455.6,286046998.8,N
1545107475.4,286046999.6,N
1545107495.2,286046999.3,N
1545107515.1,286047001.1,N
1545107516.0,286047001.1,N
1545107535.8,286046998.2,N
1545107555.7,286046999.6,N
1545107575.5,286046999.2,N
1545107595.3,286046997.3,N
1545107615.2,286046996.7,N
1545107635.0,286046997.4,N
1545107635.9,286046997.4,N
1545107655.7,286046997.5,N
1545107675.6,286046997.4,N
1545107695.4,286046997.3,N
1545107715.3,286046999.3,N
1545107735.1,286046998.1,N
1545107736.0,286046998.1,N
1545107755.8,286046996.5,N
1545107775.7,286046995.3,N
1545107795.5,286046996.3,N
1545107815.4,286046997.6,N
1545107835.2,286046997.8,N
1545107855.0,286047001.2,N
1545107855.9,286047001.2,N
1545107875.8,286046998.7,N
1545107895.6,286047000.2,N
1545107915.4,286047000.3,N
1545107935.3,286047002.2,N
1545107955.1,286047000.4,N
1545107975.9,286046998.7,N
1545107995.7,286046999.3,N
1545108015.5,286046999.2,N
1545108035.4,286046999.2,N
1545108055.2,286046998.5,N
1545108075.0,286047000.8,N
1545108076.0,286047000.8,N
1545108095.8,286046999.2,N
1545108115.6,286046999.6,N
1545108135.5,286046999.1,N
1545108155.3,286046996.9,N
1545108175.1,286046997.9,N
1545108195.9,286046997.3,N
1545108215.7,286046999.1,N
1545108235.6,286046999.4,N
1545108255.4,286046999.6,N
1545108275.2,286046996.7,N
1545108295.1,286046997.4,N
1545108296.0,286046997.4,N
1545108315.8,286046999.3,N
1545108335.7,286046998.7,N
1545108355.5,286046998.7,N
1545108375.3,286046999.1,N
1545108395.2,286046998.1,N
1545108415.0,286047000.2,N
1545108415.9,286047000.2,N
1545108435.7,286047000.4,N
1545108455.6,286047002.8,N
1545108475.4,286047001.4,N
1545108495.3,286047001.9,N
1545108515.1,286047004.4,Y
1545108516.0,286047004.4,P
1545108535.8,286047003.7,N
1545108555.7,286047001.9,N
1545108575.5,286046998.1,N
1545108595.4,286046998.6,N
1545108615.2,286047000.1,N
1545108635.0,286047000.7,N
1545108635.9,286047000.7,N
1545108655.8,286046998.8,N
1545108675.6,286046998.1,N
1545108695.4,286046998.1,N
1545108715.3,286046998.1,N
1545108735.1,286047000.0,N
1545108755.9,286047002.1,N
1545108775.7,286047002.4,N
1545108795.5,286047000.1,N
1545108815.4,286046998.4,N
1545108835.2,286046997.2,N
1545108855.0,286046996.6,N
1545108855.9,286046996.6,N
1545108875.8,286046999.1,N
1545108895.6,286046998.5,N
1545108915.5,286046998.8,N
1545108935.3,286046998.6,N
1545108955.1,286046996.5,N
1545108975.9,286046997.1,N
1545108995.7,286046998.0,N
1545109015.6,286046997.6,N
1545109035.4,286046995.2,N
1545109055.2,286046999.3,N
1545109075.1,286046998.2,N
1545109076.0,286046998.2,N
1545109095.8,286046996.7,N
1545109115.6,286046996.5,N
1545109135.5,286046996.7,N
1545109155.3,286046999.4,N
1545109175.2,286046996.6,N
1545109195.9,286046997.9,N
